EW2260 Weather Reports


time (UTC)temp
C
wind
direction
speed
KPH
gust
KPH
rain 1hr
cm
rain 24hr
cm
rain mn
cm
humidity
%
barometer
mb
20260503212404 17 270 17.7 29.0 0.00 0.00 0.00 56 1012.8
20260503211805 17 268 14.5 24.1 0.00 0.00 0.00 56 1012.8
20260503211205 17 257 12.9 25.7 0.00 0.00 0.00 56 1012.9
20260503210604 17 261 12.9 25.7 0.00 0.00 0.00 58 1012.9
20260503210009 17 260 14.5 22.5 0.00 0.00 0.00 56 1012.9
20260503205404 17 252 12.9 24.1 0.00 0.00 0.00 56 1012.9
20260503204805 17 249 14.5 25.7 0.00 0.00 0.00 59 1013.1
20260503204204 17 264 17.7 25.7 0.00 0.00 0.00 57 1013.0
20260503203604 17 253 14.5 29.0 0.00 0.00 0.00 58 1013.1
20260503203009 17 229 11.3 22.5 0.00 0.00 0.00 59 1013.1
20260503202404 16 249 12.9 27.4 0.00 0.00 0.00 59 1013.1
20260503201804 16 273 12.9 25.7 0.00 0.00 0.00 59 1013.2
20260503201204 16 271 12.9 24.1 0.00 0.00 0.00 59 1013.1
20260503200008 16 227 9.7 22.5 0.00 0.00 0.00 57 1013.2
20260503195404 16 247 11.3 22.5 0.00 0.00 0.00 60 1013.4
20260503194804 16 229 11.3 27.4 0.00 0.00 0.00 58 1013.4
20260503194204 16 215 11.3 27.4 0.00 0.00 0.00 60 1013.7
20260503193008 16 249 12.9 22.5 0.00 0.00 0.00 60 1013.7
20260503192404 16 260 9.7 22.5 0.00 0.00 0.00 60 1013.7
20260503191804 15 245 6.4 20.9 0.00 0.00 0.00 63 1013.6
20260503191204 15 243 6.4 14.5 0.00 0.00 0.00 63 1013.7
20260503190606 15 254 9.7 20.9 0.00 0.00 0.00 63 1013.8
20260503190008 15 258 12.9 20.9 0.00 0.00 0.00 64 1013.8
20260503185404 15 249 11.3 20.9 0.00 0.00 0.00 64 1013.9
20260503184804 15 246 9.7 16.1 0.00 0.00 0.00 64 1013.9
20260503184206 15 233 6.4 16.1 0.00 0.00 0.00 66 1014.0
20260503183604 15 219 6.4 16.1 0.00 0.00 0.00 66 1014.0
20260503183008 15 237 8.0 17.7 0.00 0.00 0.00 66 1014.0
20260503181804 15 250 8.0 19.3 0.00 0.00 0.00 65 1014.0
20260503181204 15 239 9.7 19.3 0.00 0.00 0.00 69 1014.1
20260503180604 15 252 11.3 19.3 0.00 0.00 0.00 68 1014.2
20260503180008 14 265 12.9 20.9 0.00 0.00 0.00 71 1014.1
20260503175404 13 266 12.9 22.5 0.00 0.00 0.00 73 1014.0
20260503174804 13 268 12.9 22.5 0.00 0.00 0.00 74 1014.2
20260503173604 12 264 12.9 24.1 0.00 0.00 0.00 74 1014.2
20260503173008 12 268 11.3 19.3 0.00 0.00 0.00 76 1014.2
20260503172404 12 265 9.7 19.3 0.00 0.00 0.00 77 1014.2
20260503171805 12 272 9.7 17.7 0.00 0.00 0.00 78 1014.2
20260503170604 12 270 9.7 16.1 0.00 0.00 0.00 80 1014.0
20260503150603 12 220 0.0 1.6 0.00 0.00 0.00 84 1013.0
20260503131204 8 209 0.0 1.6 0.00 0.00 0.00 88 1012.3
20260503130604 8 209 1.6 3.2 0.00 0.00 0.00 87 1012.2
20260503081204 11 258 4.8 9.7 0.00 0.00 0.00 84 1012.5
20260503080604 11 259 6.4 11.3 0.00 0.00 0.00 84 1012.5
20260503072404 11 252 4.8 9.7 0.00 0.00 0.00 85 1012.2
20260503071805 11 252 6.4 16.1 0.00 0.00 0.00 85 1012.1
20260503071204 11 250 9.7 16.1 0.00 0.00 0.00 86 1012.0
20260503070603 11 246 8.0 14.5 0.00 0.00 0.00 86 1012.1
20260503054804 10 275 0.0 1.6 0.00 0.00 0.00 88 1011.6
20260503054204 10 274 0.0 1.6 0.00 0.00 0.00 87 1011.6
20260503053603 10 275 0.0 1.6 0.00 0.00 0.00 87 1011.5
20260503053008 10 274 1.6 3.2 0.00 0.00 0.00 87 1011.5
20260503052404 10 281 1.6 3.2 0.00 0.00 0.00 86 1011.5
20260503051803 10 331 1.6 4.8 0.00 0.00 0.00 86 1011.4
20260503051204 10 359 3.2 4.8 0.00 0.00 0.00 87 1011.2
20260503050603 10 24 3.2 4.8 0.00 0.00 0.00 87 1011.2
20260503050007 10 56 1.6 3.2 0.00 0.00 0.00 87 1011.2
20260503045404 10 51 1.6 3.2 0.00 0.00 0.00 86 1011.2
20260503044803 10 2 1.6 3.2 0.00 0.00 0.00 86 1011.1
20260503044203 10 355 1.6 3.2 0.00 0.00 0.00 85 1010.8
20260503043603 10 355 0.0 3.2 0.00 0.00 0.00 85 1010.7
20260503043007 10 355 0.0 1.6 0.00 0.00 0.00 84 1010.7
20260503042404 10 355 0.0 1.6 0.00 0.00 0.00 84 1010.7
20260503041803 11 355 0.0 1.6 0.00 0.00 0.00 83 1010.8
20260503041204 11 355 0.0 3.2 0.00 0.00 0.00 83 1010.8
20260503040603 11 355 0.0 3.2 0.00 0.00 0.00 83 1010.6
20260503035404 11 355 0.0 3.2 0.00 0.00 0.00 82 1010.7
20260503034803 11 355 0.0 3.2 0.00 0.00 0.00 81 1010.7
20260503034203 12 355 0.0 1.6 0.00 0.00 0.00 81 1010.7
20260503033604 12 354 1.6 3.2 0.00 0.00 0.00 81 1010.7
20260503033008 12 331 1.6 4.8 0.00 0.00 0.00 81 1010.7
20260503032404 12 281 3.2 6.4 0.00 0.00 0.00 80 1010.6
20260503031804 12 284 3.2 6.4 0.00 0.00 0.00 79 1010.7
20260503031203 12 308 1.6 4.8 0.00 0.00 0.00 79 1010.6
20260503030605 13 302 1.6 3.2 0.00 0.00 0.00 78 1010.5
20260503030008 13 306 3.2 4.8 0.00 0.00 0.00 78 1010.5
20260503025403 13 328 3.2 8.0 0.00 0.00 0.00 77 1010.4
20260503024805 13 333 1.6 8.0 0.00 0.00 0.00 76 1010.4
20260503024204 13 237 3.2 6.4 0.00 0.00 0.00 75 1010.3
20260503023604 14 261 4.8 11.3 0.00 0.00 0.00 75 1010.2
20260503023007 14 270 3.2 8.0 0.00 0.00 0.00 73 1010.3
20260503022404 15 237 1.6 4.8 0.00 0.00 0.00 72 1010.3
20260503021804 15 204 3.2 8.0 0.00 0.00 0.00 73 1010.2
20260503021204 15 237 4.8 11.3 0.00 0.00 0.00 71 1010.2
20260503020604 15 253 9.7 20.9 0.00 0.00 0.00 71 1010.1
20260503020008 16 252 8.0 20.9 0.00 0.00 0.00 69 1010.1
20260503015404 16 210 6.4 12.9 0.00 0.00 0.00 69 1010.1
20260503014804 16 230 6.4 12.9 0.00 0.00 0.00 69 1010.0
20260503014204 16 281 9.7 17.7 0.00 0.00 0.00 68 1009.9
20260503013603 16 278 11.3 19.3 0.00 0.00 0.00 68 1009.9
20260503013007 17 267 9.7 19.3 0.00 0.00 0.00 66 1009.8
20260503011803 18 283 6.4 16.1 0.00 0.00 0.00 63 1010.0
20260503011205 18 172 6.4 14.5 0.00 0.00 0.00 62 1010.0
20260503010604 18 109 6.4 16.1 0.00 0.00 0.00 62 1009.9
20260503005403 19 211 6.4 12.9 0.00 0.00 0.00 60 1010.0
20260503004803 19 181 6.4 16.1 0.00 0.00 0.00 61 1009.9
20260503004204 19 179 6.4 12.9 0.00 0.00 0.00 61 1010.0
20260503001803 19 127 9.7 20.9 0.00 0.00 0.00 61 1009.9
20260503001204 19 124 11.3 20.9 0.00 0.00 0.00 60 1009.9
20260503000604 20 121 9.7 19.3 0.00 0.00 0.00 60 1010.0
20260503000009 20 140 9.7 19.3 0.00 0.00 0.00 60 1009.9
20260502235404 20 171 9.7 20.9 0.00 0.00 0.00 57 1010.0
20260502234804 20 167 11.3 25.7 0.00 0.00 0.00 59 1010.0
20260502234203 20 168 12.9 27.4 0.00 0.00 0.00 57 1010.0
20260502233605 21 176 11.3 27.4 0.00 0.00 0.00 55 1010.0
20260502233007 21 179 11.3 29.0 0.00 0.00 0.00 56 1010.0
20260502232403 21 164 11.3 29.0 0.00 0.00 0.00 57 1010.1
20260502231803 21 159 9.7 22.5 0.00 0.00 0.00 58 1010.2
20260502231203 21 161 8.0 22.5 0.00 0.00 0.00 56 1010.2
20260502230603 21 165 6.4 17.7 0.00 0.00 0.00 56 1010.3
20260502230008 21 149 8.0 17.7 0.00 0.00 0.00 58 1010.4
20260502224803 20 136 6.4 16.1 0.00 0.00 0.00 60 1010.5
20260502223603 20 164 8.0 24.1 0.00 0.00 0.00 58 1010.9
20260502223010 20 161 9.7 24.1 0.00 0.00 0.00 58 1011.0
20260502222403 20 149 11.3 20.9 0.00 0.00 0.00 59 1011.1
20260502221806 20 146 9.7 19.3 0.00 0.00 0.00 60 1011.1
20260502220605 20 154 8.0 17.7 0.00 0.00 0.00 61 1011.4
20260502220008 20 146 9.7 16.1 0.00 0.00 0.00 59 1011.5
20260502215405 20 159 9.7 20.9 0.00 0.00 0.00 59 1011.7
20260502214805 20 169 11.3 20.9 0.00 0.00 0.00 59 1011.9
20260502213604 20 160 11.3 29.0 0.00 0.00 0.00 61 1012.0
20260502213008 20 161 9.7 19.3 0.00 0.00 0.00 61 1012.0